PROBA-3 CSC (62256 NORAD) Tracking and Keplerian Element Data

This shows tracking and keplerian element data for the satellite.

Feedback or suggestion? Click here.




ElementValue
Catalog62256
NamePROBA-3 CSC
Epoch Orbit73
Epoch Day34.53916306
Epoch Year2025
RAAN140.956
Inclination59.259
Eccentricity0.8100826
Argument of Perigee190.165
Mean Anonmoly125.8831
Mean Motion1.22067962
Decay Rate-2.96E-06
L11 62256U 24233A 25034.53916306 -.00000296 00000+0 16767-2 0 9998
L22 62256 59.2590 140.9560 8100826 190.1650 125.8831 1.22067962 738



Live tracking and technical data element details for PROBA-3 CSC (NORAD 62256). PROBA-3 CSC can be tracked NOW for your location showing map with azimuth and elevation plus other details from your city location.







IsCatalogInMostPopularTable: catalog: 62256, numindb: 19
Update: records affected: 1



GetName: 62256 PROBA-3 CSC

Hit Count: updated at: Mon, 19 May 2025 02:27:16 GMT